COSMOS 2251 DEB

Satellite information

Favourite Embed

Satellite Type and Status

DEBRISIN ORBIT

Key statistics

Satellite COSMOS 2251 DEB at a glance.

Uptime

11651

Days in orbit

Revolutions

≈ 14.8

Per day

Orbit

LEO

Low Earth Orbit

Inclination

74.0

Latest

Satellite identification and parameters

Extended collection of information and parameters for COSMOS 2251 DEB.

Object identification

Identified? True

Debris? True

Object name: COSMOS 2251 DEB

International designator: 1993-036SU

Object number (NORAD): 34451

Object ID (CCSDS): 34451

Country: COMMONWEALTH OF INDEPENDENT STATES (CIS)

Current information (Y/N): Y

RCS size: SMALL

Orbital parameters

Period: 97.068 minutes

Inclination: 74.0497 deg

SMA: 6996.463 km

Apoapsis: 646.017 km

Periapsis: 590.639 km

RAAN: 163.695 deg

Eccentricy: 0.0039576

Argument of periapsis: 260.9949 deg

Mean anomaly: 98.6749 deg

Mean motion: 14.83491043 rev/day

Mean motion (dot): 0.00015764 rev/day2

B* drag term: 0.0018904 1/REarth

Two-line elements (TLE)

Creation date: May 9, 2025, 2:46 a.m.

Reference frame: TEME

Reference center: EARTH

Epoch: May 8, 2025, 2:26 a.m. UTC

TLE line 0: 0 COSMOS 2251 DEB

TLE line 1: 1 34451U 93036SU 25128.10166083 .00015764 00000-0 18904-2 0 9998

TLE line 2: 2 34451 74.0497 163.6950 0039576 260.9949 98.6749 14.83491043853836

Live tracking on map

Real-time ground track for satellite COSMOS 2251 DEB.

In-orbit conjunctions

A list of the most updated potential collisions computed for object COSMOS 2251 DEB.

Target Orbit TCA Probability of collision Miss distance Type
PSLV DEB SSO 2024-11-12 09:03:14 0.003778599 88.0 (m) DEBRIS
NOAA 12 DEB SSO 2024-10-31 23:32:34 0.000212384 75.0 (m) DEBRIS

Associated space launch

Military communications satellite. Destroyed in a collision with Iridium 33.

COSMOS 2251 DEB was lifted into orbit during the mission ‘Kosmos-3M | Strela-2M 51’, on board a Kosmos-3M space rocket.

The launch took place on June 16, 1993, 4:17 a.m. from 132/1 (132L).

For more information about the launch, click the button.

Launch to space Kosmos-3M | Strela-2M 51
Kosmos-3M | Strela-2M 51

Agency: N/A

Status: Launch Successful

Launch date: June 16, 1993, 4:17 a.m. UTC

Rocket: Kosmos-3M

Launch pad: 132/1 (132L)

Location: Plesetsk Cosmodrome, Russian Federation

...

Latest news about this satellite

There are no fresh news available about this satellite. Check back as we update our databases every day.


Newsletter sign-up

Weekly statistics, charts and insights to help you stay on top of the space industry.